Theta_e
313 313 313 313 313 313 313 313 313 313 313 313 313 313 313 314 314 314 315 316 316 316 316 317 317 317 316 317 316 316 315 309 308 307 307 310 319 322 324 326 328 327 324 313 310 305 304 305 306 310 309 307 306 305 309 306 304 300 294 291 289 291 292 296 296 298 299 298 299 303 303 302 300 306 308 311 312 326 328 329 332 337 337 339 341 343 344 344
313 313 313 313 313 313 313 313 313 313 313 313 313 313 313 313 313 314 314 315 315 316 316 317 316 316 316 316 316 316 313 309 306 307 308 318 325 326 328 329 331 328 323 311 307 303 303 303 305 308 306 302 309 303 307 301 305 297 294 292 290 293 296 300 301 302 300 298 303 303 303 303 302 309 310 307 307 317 323 327 332 333 336 339 340 341 342 342
312 313 313 313 313 313 313 313 313 313 313 313 313 313 313 313 314 314 314 314 315 315 316 316 316 316 316 316 316 316 311 307 307 306 313 325 325 326 328 331 330 329 315 307 307 306 306 304 306 306 305 303 304 302 304 300 302 298 295 290 292 298 299 301 303 302 303 302 302 302 302 303 303 305 312 309 312 316 319 322 328 330 332 334 337 339 340 340
312 312 312 313 313 313 313 313 313 313 313 313 313 313 313 313 314 314 314 314 315 315 316 316 316 315 316 316 316 314 310 306 304 312 318 333 328 326 328 329 330 328 314 309 307 306 308 308 306 306 305 303 303 305 300 301 297 298 296 292 295 299 297 301 303 303 303 303 303 302 303 303 302 303 307 310 310 316 319 324 329 329 332 334 336 337 338 338
312 312 312 312 313 313 313 313 313 313 313 313 313 313 313 313 314 314 314 314 315 315 316 315 315 315 315 315 315 312 306 300 305 318 326 334 332 329 328 327 334 320 312 309 307 307 307 307 306 306 305 299 303 301 300 301 302 299 296 299 300 300 298 302 304 304 303 302 302 301 300 301 304 305 304 308 309 308 316 321 332 334 335 335 335 337 338 337
312 312 312 312 312 312 312 313 313 313 313 313 313 313 313 313 314 314 314 314 314 315 315 315 315 315 315 315 312 310 305 289 306 315 332 332 331 330 329 331 332 313 310 307 305 305 304 304 305 302 301 300 298 296 298 301 302 294 297 298 301 302 300 303 304 303 302 302 301 300 302 303 301 301 304 303 311 315 323 324 325 336 336 337 338 338 336 337
311 312 312 312 312 312 312 312 312 312 313 313 313 314 313 314 313 313 314 313 313 313 314 314 314 315 315 314 312 308 305 306 312 318 331 332 330 329 334 333 332 314 307 304 304 302 303 303 303 302 301 300 300 299 302 301 302 298 294 298 300 302 301 303 303 303 301 302 301 303 304 301 300 299 304 305 316 320 323 326 323 332 336 338 336 337 336 337
311 311 311 312 311 312 312 312 312 312 312 313 313 313 313 313 313 313 313 313 313 313 313 314 314 315 315 310 309 304 304 306 315 327 334 333 328 330 325 316 309 308 306 304 303 302 304 303 302 304 300 297 299 300 302 300 300 297 296 299 300 302 302 303 302 302 301 302 301 303 300 301 300 301 302 303 315 317 320 322 323 331 334 336 336 336 335 336
311 311 311 311 311 311 311 312 312 312 312 312 313 313 313 312 312 312 313 313 313 313 313 314 314 314 314 309 306 302 303 313 317 323 328 323 319 319 313 308 307 305 305 306 305 305 305 303 303 303 296 299 302 299 300 297 293 298 298 300 301 302 303 303 303 302 302 302 302 299 298 300 300 303 300 308 315 319 321 321 325 329 331 333 335 335 335 334
311 311 311 311 311 311 311 312 312 312 312 312 312 313 312 312 312 312 312 312 312 312 313 313 314 313 310 307 307 298 309 319 321 325 322 319 317 313 308 307 306 304 305 306 307 306 305 305 303 304 303 301 302 298 300 298 295 300 299 299 300 301 301 303 302 302 302 303 300 298 297 299 301 302 293 304 316 320 321 322 327 329 330 332 335 334 334 328
311 311 311 311 311 311 311 311 312 312 312 312 312 312 312 312 312 312 312 312 312 312 312 313 313 312 307 309 301 297 314 313 322 322 320 316 313 308 304 306 306 304 305 306 306 309 309 308 306 304 302 297 300 298 298 298 301 300 300 299 298 300 302 302 301 301 300 301 302 302 298 298 299 299 296 299 315 319 318 319 323 327 329 330 333 331 330 324
311 311 311 311 311 311 311 312 312 312 312 312 312 312 312 312 312 312 312 311 312 312 312 313 313 311 309 306 302 302 313 313 314 319 318 312 310 308 307 308 306 305 304 303 306 309 310 308 306 302 294 301 295 299 298 302 300 300 300 295 297 298 297 300 299 301 301 300 301 301 299 297 297 295 299 303 303 318 317 317 318 326 329 330 330 328 326 324
310 310 310 311 311 311 311 311 312 312 312 312 312 311 312 312 312 312 311 311 312 312 312 313 313 311 307 299 303 313 313 313 311 312 314 312 311 311 310 310 308 307 307 306 306 310 310 307 305 301 302 300 298 293 300 302 300 300 298 295 295 294 293 299 301 301 300 301 302 301 287 289 294 297 300 302 303 303 315 315 316 323 328 328 326 325 325 325
310 310 310 310 311 311 311 311 312 312 312 312 312 311 311 312 312 312 312 311 312 312 312 312 311 309 306 302 309 311 313 313 313 312 311 316 312 311 311 311 312 310 310 308 309 309 308 306 306 303 304 300 296 304 300 299 301 292 296 296 289 288 289 298 300 299 298 301 302 300 288 288 295 298 300 301 303 302 304 313 317 320 323 324 325 324 325 325
310 310 310 310 311 311 311 311 311 312 312 312 311 311 311 311 312 312 312 311 311 312 312 313 311 306 302 305 316 318 329 320 311 312 314 313 313 311 309 311 310 312 311 310 309 309 309 308 306 301 297 303 302 298 294 294 295 295 290 286 289 289 290 297 300 299 295 299 301 298 289 289 294 297 300 302 301 302 302 312 317 318 320 322 323 324 326 327
310 310 310 310 310 311 311 311 311 311 311 311 311 311 311 311 312 312 312 312 312 311 311 307 308 307 303 300 309 327 316 314 314 317 315 310 312 311 311 310 310 310 310 309 311 310 308 307 301 299 299 301 296 291 290 289 290 294 289 289 288 289 289 293 298 300 300 299 300 298 288 292 293 297 300 302 302 302 302 304 315 318 320 321 322 323 325 328
310 310 310 310 310 310 310 310 311 311 311 310 310 310 311 311 312 311 311 312 310 312 308 306 312 309 298 311 319 311 309 312 314 312 311 310 310 313 312 309 307 307 308 309 308 308 306 303 305 301 302 293 293 293 286 283 284 287 291 287 290 289 290 287 295 299 299 298 294 298 294 292 294 298 301 300 302 301 303 303 314 318 319 319 321 322 326 327
310 310 310 310 309 310 310 310 310 310 310 310 309 309 308 311 312 309 309 309 311 311 309 311 309 305 301 312 305 308 311 312 312 312 310 309 310 309 310 307 307 306 305 304 306 301 303 297 300 292 295 294 293 289 285 282 286 285 287 287 288 291 292 291 290 295 298 297 295 295 295 294 295 296 298 300 301 302 302 303 314 316 318 319 320 322 326 327
309 310 309 309 309 310 310 310 310 310 310 310 309 311 313 313 310 309 307 309 305 303 298 302 302 289 292 304 312 313 313 314 315 313 308 308 309 309 310 311 307 303 299 298 297 300 299 297 300 291 288 288 290 291 289 291 294 292 292 290 290 288 289 290 295 298 298 294 295 294 292 294 296 297 299 300 301 299 301 304 311 317 319 319 320 322 325 326
309 309 309 309 309 309 309 310 310 310 309 306 305 305 306 304 304 305 307 307 304 307 306 306 307 304 302 305 307 311 314 313 308 308 308 309 307 306 306 307 304 303 298 293 296 297 298 289 286 287 289 291 294 294 294 296 296 295 294 292 290 291 292 296 296 298 299 294 294 295 294 294 295 297 298 300 300 301 301 303 305 316 318 318 319 320 325 327
309 309 309 309 309 309 309 310 310 309 309 306 303 300 295 295 291 293 297 305 307 309 308 307 310 306 305 309 310 310 306 305 307 306 308 311 308 305 302 303 299 294 294 297 296 302 297 287 288 291 294 295 296 297 297 296 296 295 293 292 290 292 290 296 297 299 299 295 292 295 294 293 295 297 298 300 299 299 302 303 303 314 316 317 317 319 325 325
309 309 309 309 309 309 309 310 310 309 309 305 301 297 298 297 300 302 298 293 299 307 309 307 307 305 310 310 312 311 308 302 302 305 309 309 306 300 300 301 296 292 295 296 295 292 288 287 291 294 297 298 297 297 298 296 295 295 292 291 290 291 295 298 299 300 299 297 291 295 293 293 294 297 298 298 300 301 303 304 304 313 315 316 316 320 323 324
308 308 309 309 309 309 309 309 309 308 305 302 300 300 300 304 305 306 302 296 295 301 300 301 302 304 305 309 310 310 302 300 298 303 305 308 304 302 300 297 294 294 295 295 290 289 286 289 294 297 297 296 297 297 297 297 296 292 290 288 288 293 292 287 295 297 301 297 292 293 293 292 296 296 298 298 302 303 304 306 306 307 314 315 318 323 322 323
308 308 308 309 309 309 309 309 307 305 303 302 301 302 308 309 306 305 303 295 293 299 301 302 302 302 301 301 308 306 302 302 302 301 309 307 301 303 299 298 295 294 291 294 293 290 289 294 297 297 297 296 295 297 296 293 290 294 293 291 290 293 294 293 292 299 301 300 301 294 292 289 294 293 295 297 300 305 304 305 305 305 307 312 321 323 323 323
308 308 308 308 309 309 308 308 302 305 307 305 303 307 308 308 308 309 299 295 295 296 306 304 304 303 304 310 309 303 304 304 303 307 308 307 303 301 298 302 296 290 293 294 294 292 292 297 299 296 295 296 295 293 295 296 292 291 296 295 294 296 295 296 297 295 290 289 297 294 282 283 289 293 294 295 297 299 303 303 303 303 305 318 318 318 320 323
308 308 308 308 308 308 308 302 305 304 302 297 301 306 309 312 310 310 301 292 287 297 302 294 307 299 308 302 305 304 305 298 305 307 308 308 310 304 301 296 297 290 293 293 292 293 293 298 298 297 295 295 295 294 297 298 290 290 290 298 297 296 296 295 294 293 285 284 293 299 285 280 288 292 294 296 296 297 300 301 302 303 304 315 317 317 318 322
308 307 308 308 308 307 300 298 305 304 298 297 303 306 307 308 309 307 296 287 284 299 295 301 303 299 306 303 305 305 289 293 306 307 306 310 305 308 297 293 295 297 298 298 292 288 296 296 296 298 297 295 293 291 298 297 291 289 298 297 296 294 294 294 294 291 288 297 301 298 290 284 283 289 295 296 296 296 299 301 302 303 310 315 317 317 319 322
307 308 307 308 307 307 301 302 300 300 301 304 308 308 307 310 308 305 293 276 275 299 296 297 302 309 305 305 306 300 299 304 297 302 307 309 308 302 299 295 294 293 296 294 283 295 297 294 295 295 296 293 290 295 300 298 293 292 298 298 296 295 294 294 291 289 292 290 285 292 296 286 283 289 295 296 294 295 297 300 302 309 314 315 315 317 318 319
307 307 308 307 307 307 306 302 301 300 307 308 309 310 312 310 305 294 285 276 295 294 307 298 311 307 305 305 302 302 301 303 296 302 306 308 309 304 294 297 298 296 297 295 288 294 299 298 298 297 294 291 297 297 297 297 292 296 297 298 297 296 295 294 290 290 293 287 282 289 294 284 283 288 291 294 293 294 295 299 304 311 314 314 314 316 316 318
308 307 307 307 305 304 305 303 301 306 308 310 310 310 309 304 297 286 280 273 300 287 299 300 300 299 304 298 298 301 299 301 302 303 304 302 304 305 304 305 298 296 294 297 295 296 298 305 303 299 295 297 297 297 298 298 297 299 298 296 295 294 292 292 291 290 288 282 283 293 296 290 282 286 289 292 293 296 296 302 309 312 312 312 314 315 316 317
307 308 307 307 301 303 304 299 305 309 310 311 311 308 304 298 288 280 274 286 296 294 299 298 298 304 299 297 293 300 300 301 300 300 296 303 300 302 302 297 301 294 291 292 292 295 297 298 298 299 302 301 299 296 300 300 298 297 294 291 289 288 291 288 289 290 281 277 287 292 294 294 282 284 292 299 302 300 301 303 307 309 311 312 315 317 318 319
307 307 307 304 305 306 300 298 309 307 307 310 310 303 296 281 288 278 279 299 284 291 291 294 298 299 299 300 298 297 297 299 300 298 294 296 294 294 294 288 292 284 283 286 285 294 293 293 297 299 303 300 297 294 292 296 296 294 291 290 286 280 281 279 281 279 278 276 286 293 295 292 286 293 297 302 303 305 303 308 309 310 312 313 315 316 317 318
307 307 308 306 307 303 303 305 307 306 307 308 304 297 288 278 273 282 284 290 286 296 292 298 298 297 298 297 295 298 301 294 299 297 298 298 295 295 298 296 294 290 282 288 286 289 288 295 295 297 299 300 298 288 287 288 291 291 289 286 284 280 279 274 278 279 281 287 292 291 295 285 294 297 301 302 305 308 308 307 311 312 311 312 314 316 316 317
306 307 302 305 306 306 307 309 309 309 309 308 300 292 287 277 276 293 288 289 289 296 297 295 296 296 297 292 296 298 292 298 296 296 298 296 296 291 294 297 297 293 291 289 284 286 280 283 290 294 290 298 297 295 293 292 290 290 294 290 285 284 282 275 278 275 277 279 286 294 288 283 284 291 304 305 308 309 310 312 313 314 314 313 315 316 316 316
306 305 305 306 306 308 308 310 310 311 309 304 294 286 277 278 283 284 285 289 293 295 294 298 294 293 292 295 299 300 298 294 298 296 295 295 291 292 291 292 296 296 293 283 290 287 288 286 292 297 296 298 296 298 298 295 293 294 295 294 288 282 289 282 282 283 282 281 281 284 284 293 292 300 303 307 309 309 311 312 314 313 314 315 315 314 315 315
304 306 311 309 309 311 311 312 312 310 306 299 290 280 279 284 282 290 288 296 295 292 293 294 293 289 287 289 296 295 304 295 303 296 294 296 297 294 297 296 295 296 291 284 289 283 289 284 295 296 298 296 297 299 298 298 284 294 292 285 288 296 293 283 284 289 283 282 280 285 289 294 298 300 302 306 306 307 309 311 313 313 314 314 314 315 315 315
302 307 308 313 311 315 314 314 312 310 305 298 287 280 286 288 291 291 294 291 292 292 290 284 286 286 288 286 289 293 297 297 297 294 289 297 295 298 296 297 299 297 297 293 289 294 286 285 296 295 293 297 299 299 298 299 296 292 288 290 295 298 298 287 281 283 282 278 279 286 282 287 289 283 298 304 304 304 307 309 310 311 312 313 314 315 314 314
301 305 309 309 312 317 317 315 312 307 301 294 283 290 293 287 293 292 294 293 293 293 288 286 287 292 287 288 287 291 296 291 295 294 292 296 291 303 298 296 301 300 297 298 289 292 293 284 290 296 297 297 300 298 296 299 301 294 292 301 289 281 283 288 283 279 278 276 279 282 289 290 292 290 296 300 301 302 304 307 308 309 311 312 313 315 315 315
303 304 302 308 314 314 313 315 310 302 295 288 282 284 291 291 295 293 294 293 292 290 286 288 286 294 290 286 290 293 293 289 297 296 289 294 287 301 299 300 299 302 301 301 292 294 296 284 286 295 295 299 299 294 284 290 297 298 300 296 300 292 286 283 282 284 283 279 278 279 288 281 295 293 299 300 302 303 303 305 307 308 311 312 312 313 313 313
303 303 301 312 313 315 316 313 306 300 293 283 286 288 293 289 292 294 294 293 291 289 288 288 291 287 290 290 292 289 293 292 293 293 293 295 293 301 298 304 297 299 300 301 297 298 288 290 281 289 298 299 290 292 289 291 290 289 291 289 294 294 297 292 292 286 282 279 280 280 281 285 293 299 302 301 303 304 304 304 306 308 310 312 313 313 313 313
306 300 303 314 314 314 313 307 299 293 291 293 294 292 293 291 294 294 295 295 293 296 291 290 290 287 291 289 289 293 290 291 296 291 294 295 294 286 303 300 301 297 300 299 297 296 287 286 283 288 290 289 291 297 299 297 296 293 290 288 288 289 286 284 282 292 290 283 280 281 281 287 296 305 305 304 305 305 306 306 306 308 309 309 310 311 312 312
300 294 299 312 314 314 306 296 295 297 293 290 290 294 293 301 295 295 296 297 294 290 296 294 294 292 291 291 291 290 290 290 293 295 295 292 298 297 301 305 303 302 298 291 294 300 297 294 288 283 287 290 296 298 301 300 299 297 296 292 294 291 291 285 279 284 289 289 289 286 284 285 298 305 305 306 305 306 307 307 306 307 308 309 309 310 311 312
302 297 311 313 314 309 301 292 294 291 291 295 299 297 298 297 295 296 295 297 293 295 293 294 293 291 293 292 292 291 292 289 291 292 296 297 298 301 303 304 303 303 300 294 298 299 303 287 287 289 293 295 297 300 300 301 299 295 296 298 295 292 292 288 288 288 285 288 284 283 284 289 301 306 306 307 307 307 306 307 307 307 309 309 309 308 310 311
299 300 304 311 313 310 297 283 284 284 291 295 296 295 298 296 295 294 294 294 294 292 292 292 293 295 292 295 292 290 294 284 294 293 293 297 295 303 302 302 304 299 300 299 293 299 288 289 288 281 282 284 287 292 293 297 296 292 291 294 297 297 297 296 294 289 283 286 288 282 280 284 299 304 305 306 306 306 305 306 307 306 307 308 309 309 309 311
298 303 302 305 308 305 293 295 291 286 290 291 292 291 293 295 297 296 295 294 296 293 293 292 293 294 292 294 292 294 294 292 291 297 296 297 296 301 302 301 302 299 301 302 305 301 290 289 287 280 278 276 276 277 281 283 288 293 295 294 297 296 295 291 283 284 280 286 290 285 284 292 300 303 303 304 304 304 306 306 307 308 307 308 309 310 310 310
296 285 294 297 300 301 301 303 298 293 288 290 285 291 293 291 296 297 297 295 296 295 293 294 295 295 292 292 291 291 291 295 292 295 294 293 297 299 301 301 302 300 308 312 310 302 291 295 292 287 284 283 284 287 294 293 290 287 291 293 294 297 296 294 288 283 281 284 283 289 291 292 296 300 301 302 302 302 303 305 306 306 308 309 309 310 310 310
300 289 288 283 295 294 294 296 295 294 287 294 284 292 290 291 293 295 298 292 296 295 295 294 293 291 291 291 289 291 292 292 298 296 295 295 297 298 301 301 301 305 310 303 307 298 294 286 292 294 293 292 293 293 295 295 292 292 291 291 294 295 295 292 286 283 292 284 281 289 294 291 294 298 299 301 302 302 303 304 305 306 307 308 309 309 308 310
290 293 296 297 291 284 285 286 294 293 294 295 290 295 291 290 291 288 296 296 296 297 291 293 295 294 294 293 293 286 292 293 294 290 296 296 296 298 297 300 299 305 305 300 302 297 292 285 293 293 294 294 294 294 294 293 294 294 293 292 292 294 294 290 290 293 292 282 282 291 292 292 294 298 299 300 302 302 303 304 306 307 308 306 306 304 301 299
296 296 297 300 290 292 291 293 296 293 291 292 290 292 290 290 288 291 292 293 294 293 294 283 291 293 294 295 293 290 290 285 284 294 292 292 294 294 292 297 300 302 300 299 299 301 296 286 294 294 292 293 293 294 294 292 292 293 294 293 293 293 293 294 293 294 295 291 294 295 295 295 299 299 301 302 303 304 304 306 307 307 305 303 300 298 298 297
292 291 290 297 296 292 294 293 294 291 286 292 285 289 290 289 289 291 294 292 286 291 294 291 291 293 294 293 291 287 289 291 290 285 295 293 293 295 294 295 293 299 299 298 299 301 296 286 293 294 290 291 292 293 292 292 293 290 292 293 294 296 295 294 293 293 294 293 294 294 293 292 299 301 300 302 302 302 301 300 300 302 304 299 298 297 296 295
299 301 299 293 288 290 292 291 289 289 284 286 284 289 291 290 289 292 292 295 292 290 292 290 292 293 294 292 291 290 291 292 293 292 295 294 288 298 292 293 300 295 299 297 298 295 295 287 294 292 283 285 292 292 291 291 291 290 290 291 292 291 288 291 287 293 290 289 289 290 289 289 295 294 295 295 295 295 294 293 294 294 295 295 294 294 294 294
299 302 302 297 286 293 288 290 288 287 282 288 290 289 289 290 292 293 285 294 295 295 294 293 293 291 291 290 289 290 293 293 294 295 296 296 297 297 298 298 300 296 295 297 299 291 293 289 284 285 283 283 291 293 292 290 287 284 285 289 291 292 292 294 295 295 292 290 285 285 286 294 294 294 291 291 291 292 292 293 292 293 294 294 293 293 293 294
Wind_Speed
11 11 11 11 12 12 12 12 12 11 11 11 11 11 11 11 11 11 11 12 12 13 14 15 15 15 16 16 16 17 14 10 13 9 10 19 13 17 18 12 4 14 11 3 4 3 4 5 7 7 6 4 4 7 6 7 4 3 5 4 7 7 10 9 10 7 2 3 3 5 7 6 3 3 2 2 10 15 14 12 10 16 11 13 15 17 15 13
11 11 11 12 12 12 12 13 13 12 12 12 12 11 11 11 11 12 12 12 12 12 13 14 14 14 15 16 16 16 12 11 13 13 19 19 10 16 13 13 8 13 10 3 6 7 5 7 7 6 7 5 4 5 4 3 4 5 3 5 9 5 11 9 11 12 7 2 2 2 7 6 3 6 1 2 5 11 14 11 16 14 13 14 14 16 14 12
12 12 11 11 12 12 12 12 13 13 13 13 12 12 12 12 12 11 12 12 12 12 13 13 13 14 14 14 15 14 12 11 10 12 18 19 26 18 13 9 11 13 10 4 6 7 7 7 7 7 6 6 5 7 6 5 4 5 4 6 8 8 9 13 11 11 16 4 3 6 3 0 3 1 1 4 11 13 9 8 10 15 12 12 13 14 14 11
12 12 12 12 12 12 12 12 13 13 13 13 13 13 13 12 12 12 12 12 12 12 12 13 13 14 14 15 14 11 9 10 5 8 4 7 13 23 16 11 12 12 5 5 5 7 8 7 9 10 6 8 4 9 5 6 5 3 7 6 7 6 9 15 14 17 9 5 1 5 3 1 3 3 2 4 8 9 9 5 11 12 14 13 13 13 11 11
13 12 12 12 12 12 13 13 13 13 13 13 13 13 13 13 12 12 12 12 12 12 12 12 13 14 14 14 13 7 8 4 1 1 7 4 6 15 17 12 11 8 7 2 4 8 9 10 8 10 7 4 8 5 7 7 7 4 6 11 12 12 13 18 10 11 13 5 6 5 5 2 7 6 3 3 4 7 6 9 12 13 13 15 13 11 10 11
14 13 13 13 13 13 13 13 13 13 14 13 13 13 14 13 13 13 12 12 12 12 12 12 13 13 14 14 9 7 2 1 2 2 1 3 10 14 15 12 11 7 5 4 5 5 7 9 10 7 6 5 4 7 4 9 5 8 8 6 12 14 13 13 10 11 2 4 7 5 4 6 5 5 2 4 7 6 10 11 12 15 13 12 12 12 10 11
14 14 14 14 13 13 13 13 13 13 13 14 14 14 13 13 14 13 13 12 12 12 12 12 12 14 13 13 7 2 3 10 8 4 5 6 10 13 11 8 6 3 5 5 7 6 7 10 10 7 4 6 9 8 10 7 10 9 7 6 11 8 12 12 9 14 3 5 0 2 7 8 4 7 1 4 14 15 11 10 8 15 13 14 12 10 12 11
15 14 14 14 14 14 14 14 14 13 14 14 14 14 14 14 13 13 13 12 12 12 12 12 12 12 12 9 2 3 4 9 12 1 7 6 7 9 11 7 6 4 6 8 7 9 8 9 9 6 7 5 3 10 8 11 9 9 12 10 8 8 9 11 8 12 3 2 5 2 3 9 6 1 4 3 8 10 12 10 9 14 15 12 12 11 10 9
15 15 15 15 15 15 14 14 14 14 14 14 14 14 14 14 14 13 13 12 12 11 11 11 12 11 10 4 1 7 8 10 11 8 9 8 7 7 9 7 7 7 5 7 8 9 7 6 9 6 5 8 9 10 7 6 8 6 9 7 10 12 12 11 12 11 11 3 5 4 4 5 6 5 4 6 10 12 15 13 12 12 13 11 11 11 9 12
15 16 15 15 15 15 15 14 14 15 15 15 15 15 15 14 14 13 13 13 12 12 11 11 11 10 7 3 4 3 9 2 9 10 11 8 8 7 7 6 10 7 6 7 7 9 9 7 8 6 11 10 7 6 7 7 7 5 8 10 12 10 8 9 14 13 4 1 4 5 5 5 6 3 3 3 10 14 14 15 15 14 13 11 10 8 8 18
16 16 16 16 16 16 15 15 15 15 15 15 16 15 15 14 14 14 13 13 12 11 10 10 9 8 5 3 3 7 8 6 3 8 13 12 11 8 9 6 11 8 7 6 10 11 12 13 9 5 4 4 2 8 8 6 7 10 10 10 8 12 13 11 10 9 4 4 1 1 4 3 4 4 5 6 10 14 15 15 14 13 13 11 11 9 11 14
16 16 16 16 16 16 16 16 16 16 16 17 16 16 16 15 15 15 14 13 13 11 9 8 8 5 6 5 6 11 6 4 2 2 6 10 8 8 7 6 11 8 9 8 10 11 12 12 9 5 4 3 10 8 9 11 9 10 10 11 12 11 10 8 12 9 7 5 4 5 7 8 4 4 7 12 4 12 15 15 15 15 13 12 10 8 10 13
16 16 16 16 16 16 16 16 16 16 16 17 17 16 16 16 15 15 15 14 10 10 9 9 7 4 3 5 11 17 18 14 17 15 6 8 6 7 7 8 10 10 10 10 11 11 10 9 6 7 5 5 3 3 6 9 9 7 5 5 8 6 8 6 3 6 8 3 6 5 6 8 8 7 8 9 12 8 13 12 13 13 12 11 9 9 9 10
16 16 16 16 16 16 17 17 17 17 17 17 17 18 16 16 16 15 15 14 12 10 9 8 4 4 2 8 6 7 11 10 15 15 13 10 9 9 9 8 9 11 10 12 12 8 8 6 4 5 4 5 4 6 9 6 7 5 5 3 5 4 8 3 3 5 11 5 10 7 7 7 8 10 9 8 10 8 8 16 13 14 13 11 11 10 12 11
16 16 16 16 17 18 17 18 18 18 19 19 19 18 18 18 16 15 14 11 10 9 9 6 4 2 2 9 9 19 25 16 13 14 12 9 8 6 11 9 10 11 10 9 6 5 4 4 3 4 5 3 6 5 7 4 3 3 4 7 3 8 5 4 7 5 10 4 10 5 6 7 7 9 10 10 8 10 8 15 13 13 13 12 10 12 13 13
16 16 16 16 17 18 18 18 18 19 20 20 20 20 21 19 16 13 13 11 10 8 5 5 5 5 5 9 7 9 4 5 10 15 12 7 6 8 7 10 7 6 4 5 5 3 4 4 4 2 3 3 5 5 6 6 4 4 5 3 5 4 6 6 9 10 12 8 8 12 5 5 5 6 9 9 10 12 9 11 14 14 14 12 10 9 10 13
17 17 17 17 17 18 19 19 19 19 20 19 22 22 21 19 14 9 7 8 5 4 5 2 1 7 1 4 10 8 7 8 6 7 6 7 6 8 7 8 6 6 5 7 4 3 4 4 1 4 1 3 3 4 5 7 7 6 3 7 5 7 3 6 3 11 13 13 6 13 9 4 3 9 17 7 12 13 12 11 18 15 13 12 10 9 11 12
17 18 17 18 17 18 18 19 20 20 21 20 20 21 18 17 7 3 7 3 3 5 7 6 6 4 11 7 6 9 7 8 10 7 10 5 9 8 9 6 5 7 5 6 6 5 3 3 2 3 2 4 4 4 7 10 7 6 5 5 7 8 10 10 6 5 14 12 14 9 13 9 8 8 11 10 11 15 11 10 20 17 13 11 11 10 12 13
17 18 19 18 17 18 18 18 20 20 20 20 20 21 17 4 3 3 2 3 2 1 1 3 4 5 5 3 11 8 4 9 9 11 9 8 9 8 8 7 5 7 5 4 2 7 2 3 1 3 7 6 9 10 9 8 7 9 13 8 7 6 9 12 15 15 11 8 14 12 10 12 12 12 11 9 3 4 5 8 16 14 13 12 11 11 11 12
18 18 19 18 18 18 18 18 18 20 19 13 12 10 1 1 1 1 2 5 6 8 10 6 13 8 10 14 12 10 8 6 8 8 4 10 7 9 11 6 4 3 4 6 3 8 2 6 7 9 8 7 7 10 10 10 10 12 12 10 7 8 8 10 14 13 14 8 15 16 10 14 15 14 12 11 6 6 6 10 13 15 13 14 13 12 12 12
19 19 19 19 19 19 19 18 16 15 15 8 8 4 2 3 4 2 2 8 14 13 13 12 15 16 14 11 13 12 8 3 4 6 9 9 7 6 8 7 5 5 6 5 6 3 6 6 10 8 7 8 9 8 11 12 11 11 7 7 9 9 7 10 12 11 11 7 10 13 7 11 15 11 12 11 10 8 12 18 11 18 13 14 13 12 12 11
19 19 19 20 20 20 21 19 18 16 11 5 4 4 5 10 7 7 4 10 8 13 15 18 14 16 14 15 17 12 11 9 7 6 4 14 8 8 4 7 5 7 5 5 5 2 7 11 8 8 9 9 11 10 8 10 11 11 7 7 8 10 8 12 16 21 9 6 9 13 13 6 9 12 12 9 9 7 2 9 10 18 14 14 11 13 13 13
19 19 20 21 21 22 22 23 18 17 8 3 4 6 7 10 9 8 5 6 14 11 12 15 16 19 18 14 13 9 13 13 8 11 5 9 6 10 4 8 6 6 5 8 7 4 6 8 12 10 9 9 9 11 9 10 10 8 7 6 10 11 5 6 12 6 7 2 8 11 12 5 6 7 14 7 9 5 9 11 13 15 19 16 15 17 16 16
19 19 21 21 22 22 23 22 23 11 5 10 9 10 12 9 9 11 4 2 8 17 15 17 14 14 17 15 6 13 12 7 8 10 9 10 7 9 6 5 9 7 8 9 12 9 9 8 9 11 11 11 9 9 9 5 7 8 8 6 6 7 8 5 5 8 5 4 6 8 4 3 3 4 2 6 4 6 9 7 5 5 12 11 13 14 19 19
19 19 20 21 21 24 22 24 8 2 3 7 6 13 13 13 9 7 4 4 4 8 6 12 11 12 15 10 8 10 9 9 9 3 6 14 10 6 8 5 5 8 10 9 11 12 12 15 7 13 14 13 10 9 11 4 3 2 4 6 6 9 13 11 10 11 6 6 4 6 3 1 1 3 4 6 3 5 6 8 6 5 9 17 16 12 9 11
19 19 19 20 21 22 26 7 2 8 11 7 5 9 5 6 3 2 3 2 6 6 4 7 9 8 7 9 9 10 8 11 10 8 4 12 11 9 4 7 4 7 10 11 9 5 10 10 10 11 15 13 13 13 6 5 3 1 4 2 8 12 13 10 9 5 3 2 5 2 3 4 5 3 5 6 5 11 5 7 7 6 8 13 14 12 12 12
18 18 18 19 18 19 9 2 8 11 6 4 10 12 12 8 8 5 2 1 4 5 5 2 7 1 1 7 11 9 8 7 6 8 9 11 11 7 4 6 4 5 5 4 3 6 7 12 10 12 9 12 11 10 4 7 5 6 2 8 6 9 11 8 5 6 6 2 1 2 5 2 3 6 7 6 4 3 4 6 7 6 12 13 12 11 11 11
19 18 18 18 18 12 5 8 11 8 8 9 10 11 9 10 8 3 3 2 1 5 3 0 2 2 2 8 14 11 5 2 9 9 11 11 10 8 8 6 8 10 9 5 7 3 9 9 9 7 5 4 6 3 2 5 3 3 4 9 14 11 11 9 4 5 4 5 3 2 3 1 2 6 6 6 6 5 4 5 6 12 14 11 13 14 15 15
19 18 18 17 19 20 11 6 4 8 4 6 11 10 8 8 3 2 1 1 4 3 3 2 3 2 2 3 8 6 7 4 6 8 7 12 14 3 8 12 10 9 6 8 8 5 4 10 9 10 4 4 2 2 4 5 6 6 7 7 8 7 8 6 5 7 1 1 3 2 1 2 2 5 5 3 5 7 6 6 9 14 13 17 18 15 14 13
20 18 19 17 15 8 1 4 9 13 10 11 11 8 7 5 2 1 0 3 0 3 2 1 2 4 4 5 4 7 8 4 6 3 8 10 12 6 2 3 9 11 11 10 11 9 6 5 7 7 6 2 2 4 4 6 9 3 8 8 9 8 6 6 4 3 2 3 5 4 2 5 3 4 5 3 6 6 4 7 9 12 17 20 16 16 12 12
20 20 18 15 5 4 6 5 11 11 10 9 8 5 2 0 1 1 2 3 6 8 2 3 6 7 8 8 5 7 8 6 8 5 5 7 8 6 1 5 4 4 4 4 4 10 12 7 5 1 9 6 3 4 7 11 7 8 3 6 5 6 4 2 4 4 2 2 3 5 5 7 5 4 3 1 8 4 11 11 12 14 20 16 15 13 13 11
20 21 18 10 8 6 4 5 1 7 9 10 5 4 0 0 0 2 4 2 6 4 3 3 5 5 9 7 6 7 8 7 9 7 7 8 6 7 6 5 4 4 6 4 6 7 11 10 2 3 2 2 5 8 6 6 7 9 6 4 4 1 2 2 1 4 4 3 3 5 3 3 5 1 1 8 8 12 5 14 14 17 23 19 15 13 12 11
22 20 24 13 11 8 12 15 11 11 10 9 3 2 1 1 2 5 6 3 4 4 5 9 3 8 6 6 8 7 9 9 6 9 6 7 6 8 9 11 4 6 3 4 5 3 3 6 4 3 2 4 3 4 4 5 6 8 8 5 3 0 0 2 2 1 1 1 1 3 4 3 2 1 3 7 9 10 11 9 14 19 25 21 15 13 12 10
23 23 12 6 7 10 7 5 8 10 5 3 1 1 1 0 4 5 7 8 12 14 14 10 14 13 3 4 5 3 3 8 6 4 8 3 7 4 7 12 13 5 5 2 4 4 2 4 8 3 3 6 7 9 4 4 4 3 2 5 7 4 2 3 1 2 4 4 5 5 4 2 4 1 2 12 11 13 11 13 17 22 21 18 15 14 13 11
27 22 9 5 6 10 11 10 8 8 5 1 1 1 3 5 3 2 4 5 7 10 14 12 13 9 4 5 4 5 9 3 7 4 8 7 6 3 5 8 12 10 3 3 2 1 6 6 5 9 7 9 10 7 7 6 5 1 2 2 2 4 4 4 2 1 1 1 2 3 2 1 3 2 4 11 13 14 14 17 20 17 15 16 14 12 11 10
18 5 4 2 4 5 10 9 8 7 2 0 1 2 6 4 2 3 3 5 8 8 11 13 10 7 5 3 3 7 2 7 5 8 2 10 10 9 5 3 9 12 5 6 2 3 3 4 4 12 14 7 10 6 7 3 0 4 3 3 7 5 6 3 2 1 4 3 1 2 1 2 4 4 7 11 14 12 13 14 16 15 14 14 13 12 11 8
5 7 2 4 7 5 8 9 8 4 2 1 1 4 3 5 9 11 7 12 13 15 12 7 4 6 1 2 3 6 5 6 8 6 4 2 3 4 6 7 8 11 14 4 3 3 2 4 6 3 14 11 6 9 6 7 6 3 2 5 3 3 6 5 4 0 0 2 3 3 4 2 0 1 3 10 12 9 12 13 13 12 12 14 12 11 11 10
6 5 5 9 6 9 8 11 7 5 2 1 3 6 3 7 6 11 9 12 12 9 10 7 4 10 3 3 2 3 8 10 4 8 3 1 2 3 4 4 8 5 3 8 7 2 5 6 5 5 2 4 7 8 9 8 6 8 8 3 1 2 1 2 3 2 3 2 2 0 5 3 2 2 3 3 6 7 9 11 12 11 12 15 15 13 12 11
3 2 4 4 8 4 5 2 1 2 1 2 3 4 5 9 11 14 14 14 11 12 9 9 9 2 4 6 6 9 4 3 1 4 1 5 2 4 3 0 5 7 4 8 3 2 4 3 3 4 3 1 4 2 3 6 5 6 5 1 3 6 4 0 3 2 5 2 1 4 5 1 2 1 3 3 5 7 9 10 11 9 11 12 12 11 10 10
2 2 1 1 4 5 4 3 2 1 2 4 3 5 6 9 9 11 14 12 9 5 4 8 8 9 4 3 6 6 8 4 6 5 8 6 3 7 4 1 3 6 4 5 1 6 4 4 3 3 4 6 5 4 3 2 1 4 3 2 3 1 4 6 0 2 2 3 2 4 0 1 5 3 4 6 4 6 8 10 9 8 9 10 9 9 9 9
2 1 2 1 6 5 5 3 1 3 4 4 7 10 11 9 9 10 12 12 9 7 8 10 9 9 2 6 7 9 5 6 1 2 2 3 6 1 1 4 4 7 7 10 8 5 3 0 7 2 4 1 3 3 6 9 8 4 4 5 5 5 2 1 5 2 2 3 2 3 4 1 6 3 3 7 6 7 7 10 9 9 9 7 6 6 5 6
2 1 2 3 6 4 3 1 2 2 3 5 5 6 8 9 11 13 13 14 12 7 5 2 4 8 3 4 5 5 6 7 2 3 3 2 3 2 5 2 2 3 4 1 2 1 3 3 2 4 4 1 1 6 6 12 9 8 11 10 9 1 8 5 1 6 2 1 2 2 5 1 3 5 6 7 7 11 11 6 9 7 6 6 5 5 4 4
2 2 2 5 4 5 1 1 3 2 2 4 8 10 9 9 8 10 14 13 13 3 4 3 4 7 5 6 9 8 7 4 5 4 6 5 5 8 4 6 3 4 3 4 8 4 3 1 1 3 4 5 4 7 8 14 11 11 11 10 11 9 5 8 9 9 4 2 4 1 3 1 5 3 8 9 11 11 10 7 10 9 8 9 7 5 4 5
3 2 2 2 6 5 5 0 3 5 5 8 9 10 7 9 11 11 8 10 9 6 6 4 4 3 5 7 7 10 12 4 3 5 1 2 2 4 5 3 7 1 4 2 3 4 3 5 3 1 2 6 8 7 5 6 8 3 3 6 11 10 14 3 3 2 5 5 10 3 4 3 1 3 4 11 12 9 8 8 6 9 8 9 8 7 5 5
4 3 3 0 0 4 3 1 3 1 4 5 5 6 7 7 6 10 11 9 10 7 4 3 8 8 5 5 8 10 11 6 3 4 1 1 2 3 5 4 8 4 4 2 0 2 4 4 2 1 3 2 2 3 2 3 3 0 4 11 13 14 10 6 3 1 2 2 4 6 3 2 3 7 10 11 9 8 5 9 7 7 7 7 7 7 6 7
2 1 1 2 2 3 2 1 2 1 2 4 4 5 8 7 7 6 12 9 8 10 3 3 5 6 6 7 5 6 12 11 12 1 3 1 1 1 3 6 3 4 5 8 3 1 1 1 0 1 2 5 6 4 1 2 3 5 6 12 12 11 11 5 3 4 2 2 4 3 12 10 7 7 10 10 8 6 7 8 8 7 7 8 9 9 9 8
3 1 1 2 1 5 0 2 1 2 2 2 2 5 6 7 5 7 8 2 11 11 10 3 5 6 5 7 5 4 4 7 13 13 8 6 5 2 3 2 4 6 9 4 3 1 1 1 4 1 2 3 5 5 4 2 4 5 9 9 13 12 7 11 5 2 4 2 3 1 12 12 6 6 7 8 9 7 7 7 6 8 9 9 11 11 12 12
1 1 2 1 1 2 2 2 2 1 5 5 2 5 5 8 8 4 6 5 7 9 5 8 10 13 14 8 4 5 8 4 7 4 7 6 6 7 3 9 10 12 7 4 4 2 0 1 3 5 3 3 6 7 5 2 4 5 9 7 10 10 11 9 2 3 1 2 5 6 7 9 5 5 4 5 8 8 7 7 8 9 11 14 16 16 15 16
2 2 2 1 1 3 3 3 2 5 5 5 0 4 5 8 7 8 5 7 7 6 10 3 8 12 11 12 6 4 9 5 5 3 3 4 5 4 5 5 6 12 11 10 6 6 3 3 3 5 3 4 5 8 4 4 4 4 7 7 9 8 7 6 3 8 8 5 14 13 12 11 6 5 4 4 4 7 7 6 6 8 12 16 19 18 16 15
4 3 3 4 2 2 2 1 2 6 5 6 3 5 6 7 7 8 7 6 4 5 8 6 11 9 7 8 9 5 5 4 4 3 4 3 6 2 0 1 2 5 8 5 6 8 4 2 6 2 3 3 5 9 6 2 5 2 4 9 8 4 7 5 4 6 11 15 10 12 15 10 5 10 11 9 10 9 13 13 11 9 7 16 18 18 16 14
2 3 2 3 5 3 2 3 4 5 2 2 3 4 3 8 6 8 7 7 6 5 7 9 11 8 4 8 7 7 9 7 7 6 6 5 3 3 1 2 2 4 7 7 4 6 6 3 7 5 2 1 2 3 5 4 4 5 7 6 5 5 5 2 3 1 5 7 7 8 7 5 8 11 11 11 14 14 13 13 12 11 10 14 16 15 15 14
4 3 4 2 2 5 1 4 4 2 2 1 1 3 3 7 7 7 2 6 10 10 8 7 6 6 3 5 6 7 10 11 10 8 5 8 7 10 4 7 9 8 7 7 4 3 3 1 3 4 6 2 7 10 5 6 6 5 7 10 11 4 7 6 7 8 6 9 6 6 1 6 6 6 14 12 13 12 13 11 10 11 11 13 14 13 12 12
Wind_Direction
348 349 349 347 346 345 344 344 344 343 336 332 327 320 315 315 313 310 310 310 310 309 310 312 315 318 318 319 321 320 325 311 306 290 266 247 219 217 247 265 178 193 186 191 246 252 211 198 215 237 245 230 233 243 255 267 244 191 218 219 252 245 260 257 260 259 330 55 342 18 10 14 69 29 343 131 92 95 96 79 63 61 61 94 111 125 129 129
350 349 349 347 346 345 345 346 343 343 339 336 332 326 320 315 314 310 308 308 308 307 308 312 315 316 319 319 317 323 324 306 290 277 248 244 204 224 230 234 193 173 162 198 217 220 207 191 217 214 228 238 220 246 191 242 240 215 222 200 235 230 251 266 270 285 312 311 12 329 72 326 0 98 50 47 138 112 98 86 91 83 81 96 108 119 126 130
350 350 349 348 347 346 345 344 343 340 339 336 334 331 326 319 313 310 308 306 305 307 309 313 316 316 317 320 321 326 323 301 289 262 259 241 227 218 207 173 161 158 169 180 219 223 220 191 198 210 223 244 216 245 191 234 220 228 229 229 241 241 262 260 272 298 280 267 68 61 3 13 341 73 241 97 75 75 82 106 93 108 117 111 119 126 131 135
351 349 348 348 347 345 344 342 341 340 337 336 335 334 329 324 316 312 308 306 307 307 310 311 315 317 318 322 323 326 300 295 278 249 223 319 205 206 198 170 161 167 187 224 220 229 242 230 197 207 218 221 241 238 227 217 226 190 209 236 245 244 247 254 254 257 291 358 256 131 203 174 295 249 123 72 71 86 116 111 128 132 132 134 133 134 137 137
350 350 349 348 347 345 343 342 340 339 337 335 334 333 331 326 320 314 311 309 307 307 309 312 316 317 321 317 321 325 309 349 90 203 335 4 162 182 181 168 162 172 186 209 253 260 251 243 218 208 222 220 234 252 238 237 205 267 220 219 242 261 274 272 285 315 318 5 35 8 47 316 340 327 21 98 127 150 147 130 133 137 139 140 142 137 141 144
349 349 348 346 346 345 343 341 340 337 335 333 332 331 331 329 325 318 312 310 310 309 311 314 316 318 316 318 309 298 316 123 339 349 346 40 122 148 158 156 168 172 172 206 219 243 258 269 243 221 205 236 222 222 236 239 198 236 257 245 228 235 250 270 284 282 345 38 9 360 350 332 22 327 32 291 162 159 152 143 134 143 145 139 137 140 147 152
348 347 346 345 344 342 342 339 338 337 334 332 330 329 329 329 326 318 313 310 307 309 312 314 315 318 325 313 270 231 253 273 312 239 119 135 133 135 132 130 143 185 178 191 216 232 230 244 243 225 229 212 239 249 255 242 227 235 251 240 251 253 249 264 272 273 274 283 127 352 337 322 341 270 329 35 110 144 141 140 149 131 140 137 135 157 154 153
347 346 345 343 342 341 339 338 336 335 334 330 328 326 326 325 325 322 313 310 309 308 311 312 314 320 334 333 320 213 198 259 242 126 148 125 120 129 133 133 154 170 195 204 199 219 245 251 229 225 247 212 194 225 255 266 254 235 242 246 262 257 257 260 264 267 204 183 103 129 288 284 310 268 332 101 115 133 142 140 138 128 136 138 147 155 150 135
346 344 343 342 340 339 337 336 334 333 331 329 326 325 323 323 322 323 318 310 308 307 308 311 315 321 324 293 302 319 259 235 226 145 140 144 145 142 158 153 172 171 197 216 225 235 230 241 244 217 216 226 250 261 243 245 266 249 253 235 234 243 259 275 280 287 282 183 156 147 214 264 272 27 313 131 149 125 131 131 132 131 129 136 149 156 146 112
345 343 342 341 339 337 336 334 332 331 328 326 324 322 321 321 319 320 319 313 307 307 306 308 311 324 311 267 279 269 260 82 116 145 156 158 149 161 201 162 162 174 197 216 229 240 243 246 243 206 245 273 279 248 268 241 257 259 255 251 245 250 251 246 255 262 267 219 145 165 189 229 259 79 286 139 171 134 133 138 137 141 147 148 154 152 128 106
345 343 341 340 338 336 334 332 330 328 326 323 321 321 319 318 318 315 316 313 308 305 307 304 307 312 296 276 250 242 268 301 160 153 169 163 156 173 200 179 169 183 211 220 227 229 242 251 249 255 225 242 273 265 251 255 276 271 283 287 254 241 250 254 263 270 308 269 162 4 287 239 256 158 218 253 165 155 148 149 149 147 149 152 151 142 105 114
344 342 341 338 337 334 333 330 327 325 323 321 319 318 317 316 314 313 311 310 303 301 303 300 311 292 267 256 222 230 258 300 324 193 190 158 168 194 205 209 171 192 193 224 234 236 236 245 249 251 247 149 237 260 272 274 273 287 288 287 289 280 261 231 238 257 269 265 170 162 237 262 241 228 201 236 196 164 160 160 160 153 151 150 143 127 114 129
342 341 339 337 334 333 330 328 326 323 321 319 317 314 314 312 311 309 308 307 299 294 298 305 308 267 283 299 232 239 263 277 287 281 249 193 178 196 205 216 189 199 203 218 240 243 240 240 250 272 266 274 284 251 312 297 254 258 265 269 284 300 292 255 226 264 267 213 181 156 252 235 245 236 225 221 240 183 173 166 168 149 146 146 143 135 118 130
341 339 337 335 333 331 329 326 324 322 320 319 316 313 310 309 305 303 304 299 290 283 288 289 290 279 266 246 275 244 246 249 256 263 268 201 184 195 215 223 216 204 212 227 244 267 288 264 278 296 306 280 284 349 321 314 322 264 273 265 247 286 257 279 246 222 254 171 194 166 214 253 227 238 229 231 214 220 165 163 167 149 145 145 161 140 136 148
339 337 336 334 332 329 328 325 324 322 320 318 316 311 308 302 298 296 297 294 281 268 268 284 240 274 220 266 251 257 244 250 257 260 263 204 186 211 201 221 228 220 217 224 252 271 275 312 287 236 259 319 317 293 292 290 277 284 269 274 279 233 264 268 264 237 237 217 195 182 221 224 226 222 226 221 219 228 176 162 165 154 143 161 161 152 148 152
338 336 334 333 330 329 326 326 323 322 320 319 316 311 303 295 288 288 287 284 280 287 294 246 219 222 304 289 269 309 287 185 227 237 239 218 190 220 200 208 228 237 247 268 266 281 281 326 284 214 253 258 270 274 290 307 307 269 213 253 256 236 243 257 231 253 244 247 199 195 224 202 244 259 248 220 215 231 166 162 164 145 152 156 155 151 143 140
337 335 333 331 331 327 326 324 324 322 322 319 317 308 298 287 279 260 266 283 295 232 222 243 131 172 342 234 346 316 243 227 190 205 244 181 225 215 222 197 209 223 222 261 247 221 269 255 202 303 280 238 194 220 256 272 272 279 234 227 224 246 269 251 259 219 240 231 226 198 211 211 223 211 244 227 214 223 160 163 159 156 159 156 152 153 142 139
335 333 331 330 327 327 324 323 323 323 323 322 320 302 295 282 247 25 281 259 239 230 223 250 274 280 263 255 283 245 226 220 187 208 208 187 211 229 240 204 182 212 213 219 238 245 185 245 179 214 233 229 243 217 193 228 199 230 264 237 242 235 231 247 248 220 229 213 221 200 202 215 239 242 241 234 210 212 180 165 155 164 161 152 162 155 145 141
333 332 329 329 326 324 324 321 321 324 325 323 310 296 280 336 115 200 268 166 165 48 8 194 174 139 229 186 223 258 263 235 176 190 197 194 185 239 239 246 190 171 223 185 238 202 159 255 251 236 238 218 215 220 219 229 228 227 240 226 229 223 232 228 242 248 242 203 211 202 196 206 226 238 255 264 210 225 204 166 146 162 159 156 161 154 152 148
333 331 330 327 326 323 322 320 319 322 329 328 340 332 349 354 42 57 246 227 228 219 255 225 197 239 264 281 285 280 282 75 148 192 203 175 166 205 246 232 185 194 211 186 227 195 136 190 215 217 222 228 225 225 238 249 243 251 258 271 254 247 252 247 241 234 231 217 201 205 189 193 214 224 235 252 258 285 232 186 140 160 157 164 165 160 152 138
331 331 329 328 325 322 320 317 316 319 323 323 318 318 301 324 346 290 225 221 215 231 239 241 199 213 236 263 277 282 296 226 216 178 214 150 189 175 218 221 186 206 220 206 208 210 187 202 227 223 220 227 242 220 224 244 260 261 275 271 283 282 282 271 268 248 226 211 203 194 188 189 207 217 228 243 263 244 214 172 157 155 159 168 159 152 142 120
332 330 329 327 324 322 319 316 315 311 311 298 277 260 263 253 231 275 300 298 265 221 230 241 250 249 238 238 252 263 267 266 205 233 185 151 185 187 183 203 183 220 194 235 254 211 203 220 232 224 229 228 236 242 224 224 242 257 250 272 285 276 281 293 288 269 246 226 167 188 191 204 208 205 225 226 225 198 213 142 168 149 161 169 158 157 135 134
332 331 329 327 325 321 320 314 312 310 300 226 218 219 247 254 264 259 272 282 278 272 247 241 232 236 246 245 248 240 249 253 209 207 203 167 160 199 175 185 207 217 216 200 219 204 236 242 225 216 229 235 240 243 235 230 233 236 253 261 260 266 293 302 293 312 2 221 160 171 182 226 211 208 217 212 180 176 187 168 177 155 166 167 165 159 150 146
332 331 328 327 325 323 318 317 310 301 211 212 230 227 242 277 290 298 327 286 293 291 251 245 235 232 234 225 204 229 238 232 246 194 186 165 205 172 230 197 204 213 227 205 207 221 227 242 205 219 232 232 237 244 243 201 237 239 226 228 259 285 263 255 289 331 336 336 96 78 50 349 286 196 285 290 221 193 194 184 155 154 149 158 145 149 149 151
331 330 328 325 327 324 321 316 312 238 306 185 242 250 253 257 274 304 38 301 259 254 246 249 221 232 232 200 197 202 208 247 233 230 177 171 180 158 210 220 226 215 225 222 210 223 242 244 209 205 224 235 239 253 245 190 270 296 237 205 241 267 279 297 319 347 356 337 336 92 52 297 294 316 264 264 282 190 195 180 181 167 104 116 136 134 128 129
330 329 327 325 328 330 317 304 290 360 313 281 251 296 262 228 237 325 48 282 291 269 226 237 137 236 187 209 182 208 194 227 212 219 210 179 175 199 164 230 185 226 213 227 225 212 228 235 225 212 208 220 221 232 218 161 192 332 263 231 242 256 269 284 293 336 332 189 279 73 164 269 324 292 260 275 237 232 195 169 179 158 112 121 130 136 139 134
329 327 325 326 327 334 348 343 351 321 311 293 344 334 335 7 1 21 59 287 296 239 201 26 161 325 221 167 187 160 214 228 171 197 220 164 194 173 229 208 203 245 229 215 216 235 208 238 231 230 199 210 224 224 192 148 164 246 257 288 275 258 257 258 260 256 242 262 142 127 114 162 291 296 275 251 259 261 169 162 154 150 97 123 117 115 106 98
326 324 324 323 320 323 259 301 321 315 260 289 319 321 323 5 349 15 93 355 257 275 153 235 237 32 289 171 175 179 206 118 177 192 209 161 183 170 207 219 225 210 221 242 221 246 193 220 233 249 240 208 198 171 196 155 179 214 211 230 261 265 261 253 221 246 255 154 267 272 128 67 256 269 287 287 262 270 186 169 146 95 118 102 89 92 99 101
323 321 321 321 318 300 263 234 277 268 256 322 311 315 355 339 9 92 157 148 284 329 18 160 337 203 232 169 178 176 196 241 267 166 184 158 185 178 188 227 252 267 258 225 231 257 215 207 199 232 207 216 197 177 193 196 212 234 232 245 254 267 268 255 217 245 325 33 272 270 145 147 287 268 283 304 259 242 192 200 111 124 110 94 94 103 102 101
320 318 318 321 321 303 136 187 232 245 279 289 299 313 347 358 14 45 346 271 164 267 191 86 256 179 220 164 195 165 222 212 255 159 164 157 190 210 269 205 224 249 267 275 260 238 259 201 222 193 209 205 188 224 226 226 222 204 206 230 257 262 260 281 238 171 120 192 245 229 227 152 266 274 223 236 231 188 181 97 101 107 93 96 105 114 124 136
315 312 313 315 289 297 331 266 241 240 252 256 265 313 312 355 148 159 230 261 324 255 262 144 178 150 185 204 184 184 212 243 240 217 175 141 174 200 206 274 255 257 273 285 269 256 253 257 223 189 171 185 185 255 217 235 228 211 208 208 242 298 308 332 240 128 157 260 234 187 217 160 208 293 298 340 360 295 144 125 121 110 101 104 106 107 115 120
310 309 302 299 256 268 243 233 5 345 327 325 341 341 328 15 235 178 227 18 254 256 167 189 200 179 190 191 237 167 198 209 242 234 192 168 161 186 188 214 172 244 279 255 265 239 234 237 178 235 82 97 177 227 274 251 223 204 214 224 191 255 37 325 16 194 206 179 235 180 221 243 220 253 267 44 45 16 59 124 122 107 101 105 100 106 113 132
310 304 302 281 254 224 234 248 297 297 307 310 12 357 47 124 247 217 262 319 251 7 349 331 166 216 199 205 217 219 176 215 203 246 180 166 158 194 186 205 201 168 210 248 252 305 277 250 269 197 196 170 239 181 237 266 241 194 194 171 173 95 221 248 272 193 285 261 157 220 217 226 217 66 343 58 54 55 48 70 114 113 115 120 125 125 127 134
307 307 300 243 215 215 232 242 249 265 270 323 23 348 27 157 245 207 231 235 272 311 318 317 313 307 265 227 191 230 199 215 216 207 172 135 197 201 200 203 231 218 203 254 225 189 281 262 259 213 220 153 210 221 208 232 172 177 176 149 165 159 159 213 177 203 212 215 255 207 134 258 147 205 73 75 59 56 52 60 76 92 115 124 125 125 128 123
310 300 267 256 231 236 229 233 256 260 269 321 275 150 164 233 281 278 261 273 263 284 284 302 295 294 226 241 172 209 251 350 274 240 176 141 206 226 184 205 215 227 188 229 255 283 219 213 226 214 234 172 205 213 233 267 305 278 218 190 219 221 151 175 195 140 258 22 0 356 156 237 143 239 85 73 68 58 58 66 79 95 101 110 110 111 113 120
312 289 148 234 187 220 201 214 226 242 270 323 143 213 220 201 222 190 256 254 256 267 305 306 294 282 271 264 258 224 84 127 300 337 242 178 181 205 238 206 204 203 198 186 191 231 273 282 223 200 214 188 199 182 218 191 211 276 32 213 214 195 132 102 355 305 93 44 275 193 62 357 314 7 50 70 67 65 66 68 76 85 94 96 102 110 113 115
296 305 228 225 211 172 185 199 204 184 161 262 219 249 242 264 255 284 299 296 308 323 314 308 307 301 249 257 223 233 199 152 178 218 296 48 348 289 246 242 204 192 220 181 254 217 172 236 291 291 202 221 211 187 215 186 150 118 234 235 276 173 127 128 181 292 296 178 255 122 165 162 66 238 20 59 71 66 75 77 83 85 98 101 106 116 124 129
307 284 272 271 225 177 183 201 183 146 168 296 243 257 281 272 245 259 273 284 288 305 315 301 283 296 301 1 318 269 148 187 187 200 205 51 243 199 66 326 320 336 299 239 216 269 207 270 283 294 317 225 220 184 211 242 162 161 201 225 83 328 26 310 110 173 196 214 235 86 129 69 78 224 344 39 96 91 89 95 89 89 95 105 114 115 114 119
261 292 326 63 120 157 149 108 106 134 180 250 251 273 236 245 275 278 282 286 289 290 290 286 286 226 332 322 310 304 256 193 88 20 66 335 23 318 111 326 293 310 51 41 330 265 177 166 298 316 274 318 5 209 225 234 235 225 111 149 131 125 158 121 192 188 121 225 96 342 41 293 333 253 270 139 92 96 90 81 91 94 102 113 118 125 130 128
217 283 220 270 86 84 79 77 114 159 217 230 235 240 276 277 264 252 252 261 278 281 262 289 304 305 271 260 310 309 332 340 152 177 136 226 186 279 21 272 313 308 25 33 98 338 270 128 206 283 312 77 354 321 215 177 266 249 217 181 188 112 227 125 284 133 160 176 165 154 323 272 282 293 18 78 80 89 94 91 88 94 103 114 119 128 135 133
270 259 291 62 93 92 83 93 104 191 225 253 253 266 272 269 278 282 283 273 271 238 271 278 295 275 323 341 314 341 318 309 113 140 131 200 164 324 328 32 346 342 354 23 14 3 2 67 182 269 328 279 182 230 26 38 27 337 203 209 165 111 89 168 265 236 156 107 201 135 212 321 270 301 48 63 37 60 67 94 97 102 107 113 113 111 115 119
295 219 194 131 127 112 103 115 238 200 250 265 274 297 293 318 305 308 318 314 285 272 250 296 319 320 342 265 298 324 313 302 99 99 343 122 340 109 266 326 318 24 67 15 289 255 141 262 143 182 201 202 309 317 352 44 24 50 41 4 339 109 125 136 77 289 29 67 92 118 103 262 306 50 61 52 56 48 22 23 81 76 77 81 76 67 54 104
196 265 147 177 169 163 205 328 300 321 268 266 285 276 301 306 307 320 314 314 311 344 7 336 341 350 341 343 340 313 308 309 311 138 174 129 182 222 175 156 65 29 70 333 3 300 29 341 258 328 355 338 339 3 27 46 38 17 18 19 21 5 275 182 178 186 150 358 45 34 70 87 25 17 66 62 51 46 40 24 82 76 75 81 70 49 53 58
311 296 337 232 161 194 91 356 318 315 321 327 324 314 293 288 293 285 297 328 318 342 347 333 319 337 319 351 340 320 310 298 328 105 124 147 168 243 226 287 132 135 112 224 111 294 31 306 103 4 1 351 345 355 6 39 50 66 11 24 14 8 17 341 95 80 98 191 150 151 188 202 201 80 57 76 62 38 61 61 64 84 81 79 76 75 54 60
283 268 176 130 96 85 74 332 352 332 309 318 316 315 326 308 318 336 320 306 316 305 350 340 344 335 324 338 314 308 293 291 317 31 122 29 108 214 207 138 135 145 144 152 349 354 100 237 31 116 132 147 221 243 239 4 337 21 34 29 30 23 354 19 78 51 98 289 124 116 116 127 114 100 96 80 87 83 77 89 75 80 86 86 79 74 72 63
297 15 344 83 10 78 86 288 104 240 300 317 349 320 333 323 318 326 337 319 325 314 277 338 301 328 313 315 311 319 319 348 323 178 32 248 79 255 200 147 141 137 81 92 45 54 167 279 329 164 149 194 199 167 213 139 55 63 26 31 27 29 15 33 64 66 115 155 82 177 145 143 122 115 108 113 117 130 107 87 80 70 68 73 77 73 69 65
298 43 20 348 323 38 35 48 23 71 333 282 356 341 342 341 346 319 355 310 353 1 355 353 335 339 321 325 307 296 346 343 17 39 25 18 298 313 187 306 151 102 68 43 3 113 127 71 269 325 27 133 130 127 144 82 105 72 51 34 36 34 39 55 65 215 258 75 45 16 135 122 137 137 139 128 123 112 101 99 83 75 71 74 81 76 64 55
223 154 116 189 107 281 27 332 6 8 26 12 0 320 12 358 2 23 298 3 8 15 24 332 14 21 12 342 353 15 347 35 34 17 3 26 326 339 354 31 54 20 25 150 192 115 331 37 261 112 255 154 135 120 119 109 95 111 75 47 47 38 41 51 23 277 270 138 170 138 112 108 124 124 123 121 128 126 121 110 114 118 113 111 97 82 72 68
88 346 64 88 57 208 161 199 95 65 33 7 169 316 355 15 15 2 353 353 356 27 24 18 355 18 5 2 31 41 16 20 353 349 33 3 352 331 6 343 21 48 36 14 11 39 19 213 268 169 208 217 147 132 139 139 118 114 107 85 67 56 55 43 10 4 61 80 126 117 98 88 75 75 80 97 98 101 90 89 94 114 121 107 96 90 80 70
20 350 334 333 293 253 160 133 104 82 63 5 20 341 349 6 18 355 1 29 10 7 8 32 355 5 2 10 30 44 355 16 343 338 321 35 335 292 133 85 264 10 30 42 356 12 31 288 320 245 171 236 144 137 145 133 107 113 115 95 77 85 82 61 35 6 53 56 51 96 105 97 69 58 44 42 65 58 72 68 52 31 84 103 99 93 85 76
329 14 323 334 323 303 89 38 39 95 65 352 42 333 4 349 17 5 357 7 23 1 14 9 4 338 10 14 17 10 342 334 320 307 312 313 278 263 122 269 126 69 20 11 6 351 33 303 347 10 47 343 85 110 111 69 71 70 58 45 64 77 69 45 60 325 97 98 61 30 66 96 77 74 82 67 70 69 67 70 65 59 42 66 77 82 84 82
356 330 13 355 294 284 29 47 31 52 28 195 325 343 353 4 354 12 359 360 1 358 359 10 1 348 352 18 4 333 315 310 298 292 288 285 277 280 232 182 162 152 161 180 152 131 127 49 33 22 29 330 346 41 34 97 63 39 6 345 323 303 124 94 86 92 115 123 86 99 285 39 63 70 82 57 62 61 62 61 69 61 58 69 74 77 80 79